Regional Weather Roundup
Issued by NWS

Home | Current Version | Previous Version | Text Only | Print | Product List | Glossary On
Versions: 1 2 3 4 5 6 7 8 9 10 11 12 13 14 15 16 17 18 19 20 21 22 23 24 25 26 27 28 29 30 31 32 33 34 35 36 37 38 39 40 41 42 43 44 45 46 47 48
000
ASUS45 KBOU 221407
RWRCO

WEATHER ROUNDUP FOR COLORADO
NATIONAL WEATHER SERVICE DENVER/BOULDER CO
800 AM MDT MON SEP 22 2014

NOTE: "FAIR" INDICATES FEW OR NO CLOUDS BELOW 12000 FEET WITH NO
SIGNIFICANT WEATHER AND/OR OBSTRUCTIONS TO VISIBILITY.

COZ001>005-013-030-031-221500-
...NORTHWEST COLORADO...

CITY           SKY/WX    TMP DP  RH WIND       PRES   REMARKS
CRAIG          CLOUDY    52  49  89 CALM      30.27S
HAYDEN         PTSUNNY   54  48  82 CALM      30.28S
MEEKER         CLOUDY    52  50  93 VRB6      30.30R FOG
MOUNT WERNER   NOT AVBL
STEAMBOAT SPGS CLOUDY    51  49  95 CALM      30.29S
WALDEN         CLOUDY    50  45  81 CALM      30.35F
$$

COZ006>008-011-221500-
...WEST CENTRAL VALLEYS...

CITY           SKY/WX    TMP DP  RH WIND       PRES   REMARKS
GRAND JUNCTION PTSUNNY   59  56  89 CALM      30.22R
MONTROSE       FOG       58  57  97 CALM      30.29R VSB 3/4
EAGLE          PTSUNNY   55  55 100 CALM      30.34S
RIFLE          LGT RAIN  57  55  93 E3        30.24S
DELTA          RAIN      61  58  89 NE5       30.25S
NUCLA          PTSUNNY   55  54  94 CALM      30.32R FOG
$$

COZ017>023-064>068-221500-
...SOUTHWEST COLORADO...

CITY           SKY/WX    TMP DP  RH WIND       PRES   REMARKS
DURANGO        CLOUDY    58  57  97 E5        30.36R
CORTEZ         PTSUNNY   58  57  97 CALM      30.30R
PAGOSA SPRINGS HVY RAIN  55  55  97 W6        30.43R
TELLURIDE      NOT AVBL
WOLF CREEK PAS CLOUDY    39  39 100 SW15G25   30.62R VSB 1/4
$$

COZ009-010-012-014-032>034-037-058>063-221500-
...CENTRAL COLORADO...

CITY           SKY/WX    TMP DP  RH WIND       PRES   REMARKS
ASPEN          PTSUNNY   52  50  93 CALM      30.37S
BUENA VISTA    CLOUDY    51  49  95 SE6       30.40F
COPPER MTN     CLOUDY    45  37  76 S21       30.60S
BERTHOUD PASS  FOG       36  34  93 NW14      30.62S VSB<1/4
COTTONWOOD PAS CLOUDY    48  43  81 W12       30.50S
GUNNISON       CLOUDY    54  48  82 N6        30.42R
KREMMLING      CLOUDY    52  48  87 W3        30.37R
LEADVILLE      LGT RAIN  46  46 100 S8        30.48S
MONARCH PASS   LGT RAIN  41  37  87 SW29G37   30.70F VSB 1/4
SALIDA         CLOUDY    53  51  95 CALM      30.46R
SUNLIGHT       FOG       46  45  93 CALM      30.53S THUNDER VSB 1/4
WILKERSON PASS NOT AVBL
$$

COZ069>075-221500-
...SAN LUIS VALLEY/SANGRE DE CRISTO MOUNTAINS...

CITY           SKY/WX    TMP DP  RH WIND       PRES   REMARKS
ALAMOSA        CLOUDY    58  50  75 S9        30.39S
LA VETA PASS   CLOUDY    45  43  93 S13G22    30.50F
SAGUACHE       NOT AVBL
$$

COZ035-036-038>040-221500-
...NORTHERN COLORADO FRONT RANGE...

CITY           SKY/WX    TMP DP  RH WIND       PRES   REMARKS
DENVER INTL AP CLOUDY    61  50  67 W10       30.20R
DMNS CITY PARK   N/A     60  52  73 W2        30.20R
AURORA         PTSUNNY   60  50  69 S15       30.21S
FRONT RANGE AP NOT AVBL
ERIE MUNI ARPT NOT AVBL
BOULDER MUN AP PTSUNNY   59  54  82 CALM      30.20S
CENTENNIAL     CLOUDY    60  50  69 S12       30.22F
BROOMFIELD     LGT RAIN  57  55  94 N6        30.22R
FORT COLLINS   CLOUDY    54  50  87 N13       30.17F
LONGMONT       CLOUDY    59  53  79 CALM      30.21R
$$

COZ041-046-047-076>085-087-088-221500-
...PIKES PEAK/PALMER DIVIDE AND SOUTHERN FOOTHILLS...

CITY           SKY/WX    TMP DP  RH WIND       PRES   REMARKS
COLO. SPRINGS  CLOUDY    56  46  69 NE5       30.30S
A. F. ACADEMY  PTSUNNY   54  45  71 E2        30.29F
ELLICOTT       NOT AVBL
FALCON         CLOUDY    53  47  78 S5        30.32S
FORT CARSON    CLOUDY    54  46  74 N3        30.27S
LIMON          PTSUNNY   54  45  71 SE13      30.26S
MONUMENT HILL  CLOUDY    52  46  82 SW7       30.30S
TRINIDAD       PTSUNNY   64  54  69 SW7       30.29R
$$

COZ042>045-048>051-090-091-221500-
...NORTHEAST COLORADO...

CITY           SKY/WX    TMP DP  RH WIND       PRES   REMARKS
GREELEY ARPT   CLOUDY    57  45  62 N5        30.20R
AKRON          CLOUDY    60  45  57 S23G37    30.20F
BURLINGTON     MOSUNNY   60  41  49 S17G29    30.26F
WRAY           CLOUDY    60  43  52 SE8       30.23F
STERLING       PTSUNNY   63  50  63 S5        30.17F
HOLYOKE        MOSUNNY   61  45  55 S12       30.21F
FORT MORGAN    PTSUNNY   60  45  57 S10       30.20R
$$

COZ086-089-092>099-221500-
...SOUTHEAST COLORADO...

CITY           SKY/WX    TMP DP  RH WIND       PRES   REMARKS
PUEBLO         CLOUDY    58  50  75 E6        30.21F
LA JUNTA       MOSUNNY   62  51  67 E9        30.22F
LAMAR          MOSUNNY   59  49  69 SE13      30.25S
SPRINGFIELD      N/A     60  51  72 S16       30.31S
$$


USA.gov is the U.S. government's official web portal to all federal, state and local government web resources and services.